| time (UTC) | temp C | wind direction | speed KPH | gust KPH | rain 1hr cm | rain 24hr cm | rain mn cm | humidity % | barometer mb |
| 20260507010024 | 28 | 151 | 3.2 | 16.1 | 0.00 | 0.00 | 0.00 | 18 | 1010.1 |
| 20260507005517 | 28 | 213 | 3.2 | 11.3 | 0.00 | 0.00 | 0.00 | 18 | 1010.2 |
| 20260507005016 | 28 | 190 | 3.2 | 9.7 | 0.00 | 0.00 | 0.00 | 18 | 1010.1 |
| 20260507004516 | 28 | 184 | 3.2 | 11.3 | 0.00 | 0.00 | 0.00 | 18 | 1010.2 |
| 20260507004015 | 28 | 260 | 4.8 | 11.3 | 0.00 | 0.00 | 0.00 | 17 | 1010.2 |
| 20260507003515 | 29 | 173 | 1.6 | 11.3 | 0.00 | 0.00 | 0.00 | 18 | 1010.1 |
| 20260507003015 | 29 | 211 | 4.8 | 11.3 | 0.00 | 0.00 | 0.00 | 17 | 1010.2 |
| 20260507002514 | 29 | 213 | 3.2 | 9.7 | 0.00 | 0.00 | 0.00 | 18 | 1010.2 |
| 20260507002014 | 29 | 205 | 1.6 | 12.9 | 0.00 | 0.00 | 0.00 | 17 | 1010.1 |
| 20260507001515 | 29 | 222 | 3.2 | 14.5 | 0.00 | 0.00 | 0.00 | 18 | 1010.1 |
| 20260507001013 | 29 | 198 | 3.2 | 14.5 | 0.00 | 0.00 | 0.00 | 17 | 1010.1 |
| 20260507000513 | 29 | 203 | 3.2 | 11.3 | 0.00 | 0.00 | 0.00 | 18 | 1010.0 |
| 20260507000018 | 30 | 224 | 3.2 | 11.3 | 0.00 | 0.00 | 0.00 | 18 | 1010.2 |
| 20260506235513 | 30 | 257 | 1.6 | 9.7 | 0.00 | 0.00 | 0.00 | 17 | 1010.1 |
| 20260506235011 | 30 | 183 | 3.2 | 11.3 | 0.00 | 0.00 | 0.00 | 17 | 1010.2 |
| 20260506234511 | 30 | 171 | 1.6 | 11.3 | 0.00 | 0.00 | 0.00 | 18 | 1010.2 |
| 20260506234011 | 30 | 95 | 0.0 | 12.9 | 0.00 | 0.00 | 0.00 | 18 | 1010.3 |
| 20260506233511 | 30 | 203 | 3.2 | 12.9 | 0.00 | 0.00 | 0.00 | 17 | 1010.2 |
| 20260506233010 | 30 | 180 | 1.6 | 11.3 | 0.00 | 0.00 | 0.00 | 18 | 1010.2 |
| 20260506232511 | 30 | 310 | 3.2 | 11.3 | 0.00 | 0.00 | 0.00 | 18 | 1010.4 |
| 20260506232009 | 30 | 141 | 3.2 | 12.9 | 0.00 | 0.00 | 0.00 | 18 | 1010.4 |
| 20260506231510 | 30 | 210 | 3.2 | 12.9 | 0.00 | 0.00 | 0.00 | 18 | 1010.4 |
| 20260506231008 | 30 | 167 | 1.6 | 12.9 | 0.00 | 0.00 | 0.00 | 18 | 1010.5 |
| 20260506230507 | 30 | 225 | 3.2 | 8.0 | 0.00 | 0.00 | 0.00 | 18 | 1010.6 |
| 20260506230007 | 30 | 182 | 3.2 | 8.0 | 0.00 | 0.00 | 0.00 | 18 | 1010.7 |
| 20260506225506 | 30 | 251 | 3.2 | 14.5 | 0.00 | 0.00 | 0.00 | 18 | 1010.7 |
| 20260506225006 | 30 | 155 | 3.2 | 16.1 | 0.00 | 0.00 | 0.00 | 18 | 1010.7 |
| 20260506224505 | 30 | 250 | 3.2 | 14.5 | 0.00 | 0.00 | 0.00 | 18 | 1010.8 |
| 20260506224004 | 30 | 179 | 3.2 | 14.5 | 0.00 | 0.00 | 0.00 | 18 | 1010.8 |
| 20260506223503 | 30 | 175 | 1.6 | 8.0 | 0.00 | 0.00 | 0.00 | 18 | 1010.9 |
| 20260506223002 | 29 | 240 | 1.6 | 9.7 | 0.00 | 0.00 | 0.00 | 18 | 1010.9 |
| 20260506222502 | 29 | 192 | 1.6 | 12.9 | 0.00 | 0.00 | 0.00 | 18 | 1011.0 |
| 20260506222002 | 29 | 228 | 1.6 | 9.7 | 0.00 | 0.00 | 0.00 | 18 | 1011.1 |
| 20260506221504 | 29 | 229 | 3.2 | 9.7 | 0.00 | 0.00 | 0.00 | 18 | 1011.2 |
| 20260506221002 | 30 | 166 | 3.2 | 9.7 | 0.00 | 0.00 | 0.00 | 19 | 1011.3 |
| 20260506220501 | 30 | 298 | 1.6 | 9.7 | 0.00 | 0.00 | 0.00 | 18 | 1011.3 |
| 20260506220101 | 30 | 190 | 3.2 | 16.1 | 0.00 | 0.00 | 0.00 | 18 | 1011.4 |
| 20260506215600 | 30 | 213 | 1.6 | 16.1 | 0.00 | 0.00 | 0.00 | 19 | 1011.4 |
| 20260506215058 | 29 | 144 | 3.2 | 14.5 | 0.00 | 0.00 | 0.00 | 19 | 1011.4 |
| 20260506214601 | 29 | 128 | 3.2 | 14.5 | 0.00 | 0.00 | 0.00 | 20 | 1011.6 |
| 20260506214057 | 29 | 171 | 4.8 | 14.5 | 0.00 | 0.00 | 0.00 | 20 | 1011.7 |
| 20260506213559 | 29 | 226 | 1.6 | 12.9 | 0.00 | 0.00 | 0.00 | 20 | 1011.8 |
| 20260506213059 | 28 | 251 | 4.8 | 12.9 | 0.00 | 0.00 | 0.00 | 20 | 1011.9 |
| 20260506212555 | 28 | 213 | 1.6 | 9.7 | 0.00 | 0.00 | 0.00 | 20 | 1012.0 |
| 20260506212055 | 28 | 184 | 3.2 | 9.7 | 0.00 | 0.00 | 0.00 | 21 | 1012.1 |
| 20260506211556 | 28 | 226 | 1.6 | 8.0 | 0.00 | 0.00 | 0.00 | 21 | 1012.2 |
| 20260506211055 | 28 | 234 | 1.6 | 8.0 | 0.00 | 0.00 | 0.00 | 21 | 1012.3 |
| 20260506210554 | 28 | 273 | 1.6 | 11.3 | 0.00 | 0.00 | 0.00 | 20 | 1012.4 |
| 20260506210054 | 28 | 134 | 3.2 | 11.3 | 0.00 | 0.00 | 0.00 | 22 | 1012.5 |
| 20260506205553 | 28 | 184 | 3.2 | 11.3 | 0.00 | 0.00 | 0.00 | 22 | 1012.5 |
| 20260506205052 | 28 | 182 | 3.2 | 11.3 | 0.00 | 0.00 | 0.00 | 20 | 1012.7 |
| 20260506204552 | 28 | 115 | 4.8 | 11.3 | 0.00 | 0.00 | 0.00 | 20 | 1012.7 |
| 20260506204050 | 28 | 183 | 1.6 | 9.7 | 0.00 | 0.00 | 0.00 | 21 | 1012.7 |
| 20260506203549 | 27 | 173 | 0.0 | 9.7 | 0.00 | 0.00 | 0.00 | 21 | 1012.8 |
| 20260506203049 | 27 | 229 | 0.0 | 8.0 | 0.00 | 0.00 | 0.00 | 22 | 1012.8 |
| 20260506202549 | 27 | 106 | 1.6 | 14.5 | 0.00 | 0.00 | 0.00 | 22 | 1012.8 |
| 20260506202049 | 27 | 274 | 6.4 | 14.5 | 0.00 | 0.00 | 0.00 | 21 | 1013.0 |
| 20260506201550 | 27 | 205 | 1.6 | 8.0 | 0.00 | 0.00 | 0.00 | 22 | 1013.0 |
| 20260506201048 | 27 | 115 | 3.2 | 8.0 | 0.00 | 0.00 | 0.00 | 21 | 1013.1 |
| 20260506200545 | 27 | 263 | 0.0 | 9.7 | 0.00 | 0.00 | 0.00 | 22 | 1013.1 |
| 20260506200046 | 26 | 198 | 1.6 | 9.7 | 0.00 | 0.00 | 0.00 | 23 | 1013.2 |
| 20260506195546 | 27 | 119 | 1.6 | 8.0 | 0.00 | 0.00 | 0.00 | 21 | 1013.3 |
| 20260506195045 | 27 | 284 | 3.2 | 8.0 | 0.00 | 0.00 | 0.00 | 22 | 1013.3 |
| 20260506194545 | 27 | 278 | 0.0 | 11.3 | 0.00 | 0.00 | 0.00 | 22 | 1013.3 |
| 20260506194044 | 26 | 167 | 3.2 | 11.3 | 0.00 | 0.00 | 0.00 | 23 | 1013.3 |
| 20260506193542 | 26 | 164 | 1.6 | 12.9 | 0.00 | 0.00 | 0.00 | 23 | 1013.4 |
| 20260506193050 | 26 | 288 | 6.4 | 16.1 | 0.00 | 0.00 | 0.00 | 22 | 1013.4 |
| 20260506192543 | 27 | 286 | 4.8 | 12.9 | 0.00 | 0.00 | 0.00 | 22 | 1013.5 |
| 20260506192042 | 27 | 268 | 1.6 | 8.0 | 0.00 | 0.00 | 0.00 | 22 | 1013.5 |
| 20260506191542 | 27 | 232 | 0.0 | 8.0 | 0.00 | 0.00 | 0.00 | 23 | 1013.7 |
| 20260506191046 | 27 | 161 | 3.2 | 9.7 | 0.00 | 0.00 | 0.00 | 22 | 1013.7 |
| 20260506190541 | 27 | 222 | 3.2 | 9.7 | 0.00 | 0.00 | 0.00 | 23 | 1013.8 |
| 20260506190040 | 26 | 146 | 3.2 | 8.0 | 0.00 | 0.00 | 0.00 | 22 | 1013.8 |
| 20260506185540 | 26 | 115 | 1.6 | 9.7 | 0.00 | 0.00 | 0.00 | 22 | 1013.9 |
| 20260506185038 | 26 | 140 | 1.6 | 9.7 | 0.00 | 0.00 | 0.00 | 23 | 1013.9 |
| 20260506184539 | 26 | 264 | 3.2 | 8.0 | 0.00 | 0.00 | 0.00 | 23 | 1013.9 |
| 20260506184036 | 26 | 193 | 1.6 | 9.7 | 0.00 | 0.00 | 0.00 | 23 | 1014.0 |
| 20260506183535 | 26 | 183 | 1.6 | 9.7 | 0.00 | 0.00 | 0.00 | 23 | 1014.0 |
| 20260506183033 | 26 | 304 | 1.6 | 9.7 | 0.00 | 0.00 | 0.00 | 23 | 1014.1 |
| 20260506182533 | 26 | 163 | 1.6 | 9.7 | 0.00 | 0.00 | 0.00 | 23 | 1014.2 |
| 20260506182032 | 26 | 184 | 3.2 | 9.7 | 0.00 | 0.00 | 0.00 | 23 | 1014.2 |
| 20260506181541 | 26 | 278 | 3.2 | 9.7 | 0.00 | 0.00 | 0.00 | 22 | 1014.2 |
| 20260506181030 | 26 | 94 | 3.2 | 9.7 | 0.00 | 0.00 | 0.00 | 22 | 1014.3 |
| 20260506180529 | 26 | 236 | 3.2 | 8.0 | 0.00 | 0.00 | 0.00 | 23 | 1014.3 |
| 20260506180028 | 26 | 200 | 1.6 | 9.7 | 0.00 | 0.00 | 0.00 | 22 | 1014.4 |
| 20260506175529 | 26 | 159 | 4.8 | 9.7 | 0.00 | 0.00 | 0.00 | 22 | 1014.3 |
| 20260506175025 | 26 | 219 | 1.6 | 8.0 | 0.00 | 0.00 | 0.00 | 23 | 1014.3 |
| 20260506174526 | 26 | 190 | 1.6 | 9.7 | 0.00 | 0.00 | 0.00 | 24 | 1014.3 |
| 20260506174026 | 25 | 191 | 3.2 | 9.7 | 0.00 | 0.00 | 0.00 | 24 | 1014.3 |
| 20260506173525 | 25 | 218 | 3.2 | 8.0 | 0.00 | 0.00 | 0.00 | 25 | 1014.4 |
| 20260506173031 | 25 | 209 | 3.2 | 8.0 | 0.00 | 0.00 | 0.00 | 25 | 1014.3 |
| 20260506172519 | 25 | 221 | 1.6 | 9.7 | 0.00 | 0.00 | 0.00 | 26 | 1014.3 |
| 20260506172017 | 25 | 167 | 3.2 | 11.3 | 0.00 | 0.00 | 0.00 | 26 | 1014.3 |
| 20260506171519 | 25 | 153 | 3.2 | 8.0 | 0.00 | 0.00 | 0.00 | 25 | 1014.3 |
| 20260506171017 | 25 | 177 | 0.0 | 9.7 | 0.00 | 0.00 | 0.00 | 26 | 1014.3 |
| 20260506170514 | 25 | 92 | 1.6 | 9.7 | 0.00 | 0.00 | 0.00 | 25 | 1014.3 |
| 20260506170012 | 25 | 152 | 1.6 | 8.0 | 0.00 | 0.00 | 0.00 | 27 | 1014.3 |
| 20260506165515 | 24 | 143 | 1.6 | 8.0 | 0.00 | 0.00 | 0.00 | 27 | 1014.3 |
| 20260506165010 | 23 | 92 | 1.6 | 8.0 | 0.00 | 0.00 | 0.00 | 26 | 1014.3 |
| 20260506164510 | 23 | 188 | 1.6 | 6.4 | 0.00 | 0.00 | 0.00 | 27 | 1014.3 |
| 20260506164006 | 23 | 204 | 3.2 | 6.4 | 0.00 | 0.00 | 0.00 | 27 | 1014.3 |
| 20260506163505 | 23 | 155 | 3.2 | 8.0 | 0.00 | 0.00 | 0.00 | 28 | 1014.3 |
| 20260506163009 | 23 | 102 | 1.6 | 8.0 | 0.00 | 0.00 | 0.00 | 28 | 1014.3 |
| 20260506162503 | 23 | 57 | 0.0 | 6.4 | 0.00 | 0.00 | 0.00 | 28 | 1014.3 |
| 20260506162002 | 22 | 181 | 1.6 | 6.4 | 0.00 | 0.00 | 0.00 | 29 | 1014.3 |
| 20260506161600 | 22 | 217 | 1.6 | 6.4 | 0.00 | 0.00 | 0.00 | 30 | 1014.2 |
| 20260506161058 | 21 | 148 | 0.0 | 12.9 | 0.00 | 0.00 | 0.00 | 30 | 1014.2 |
| 20260506160557 | 21 | 101 | 6.4 | 9.7 | 0.00 | 0.00 | 0.00 | 32 | 1014.1 |
| 20260506160056 | 21 | 74 | 1.6 | 8.0 | 0.00 | 0.00 | 0.00 | 34 | 1014.2 |
| 20260506155558 | 21 | 35 | 3.2 | 8.0 | 0.00 | 0.00 | 0.00 | 33 | 1014.2 |
| 20260506155057 | 21 | 115 | 1.6 | 8.0 | 0.00 | 0.00 | 0.00 | 34 | 1014.3 |
| 20260506154609 | 21 | 51 | 3.2 | 9.7 | 0.00 | 0.00 | 0.00 | 34 | 1014.2 |
| 20260506154051 | 21 | 52 | 3.2 | 11.3 | 0.00 | 0.00 | 0.00 | 33 | 1014.3 |
| 20260506153550 | 21 | 12 | 3.2 | 11.3 | 0.00 | 0.00 | 0.00 | 31 | 1014.3 |
| 20260506153049 | 21 | 11 | 3.2 | 8.0 | 0.00 | 0.00 | 0.00 | 32 | 1014.3 |
| 20260506152547 | 21 | 32 | 0.0 | 9.7 | 0.00 | 0.00 | 0.00 | 32 | 1014.3 |
| 20260506152045 | 21 | 89 | 1.6 | 6.4 | 0.00 | 0.00 | 0.00 | 31 | 1014.3 |
| 20260506151544 | 21 | 76 | 1.6 | 4.8 | 0.00 | 0.00 | 0.00 | 31 | 1014.3 |
| 20260506151043 | 21 | 151 | 0.0 | 3.2 | 0.00 | 0.00 | 0.00 | 32 | 1014.3 |
| 20260506150541 | 21 | 115 | 0.0 | 3.2 | 0.00 | 0.00 | 0.00 | 33 | 1014.3 |
| 20260506150040 | 20 | 136 | 0.0 | 1.6 | 0.00 | 0.00 | 0.00 | 34 | 1014.2 |
| 20260506145540 | 20 | 148 | 0.0 | 3.2 | 0.00 | 0.00 | 0.00 | 35 | 1014.2 |
| 20260506145038 | 20 | 124 | 0.0 | 3.2 | 0.00 | 0.00 | 0.00 | 34 | 1014.2 |
| 20260506144542 | 19 | 158 | 0.0 | 3.2 | 0.00 | 0.00 | 0.00 | 36 | 1014.2 |
| 20260506144034 | 18 | 240 | 0.0 | 3.2 | 0.00 | 0.00 | 0.00 | 37 | 1014.2 |
| 20260506143533 | 18 | 166 | 0.0 | 3.2 | 0.00 | 0.00 | 0.00 | 38 | 1014.1 |
| 20260506143032 | 18 | 190 | 0.0 | 0.0 | 0.00 | 0.00 | 0.00 | 39 | 1014.1 |
| 20260506142529 | 17 | 146 | 0.0 | 0.0 | 0.00 | 0.00 | 0.00 | 42 | 1014.1 |
| 20260506142029 | 17 | 146 | 0.0 | 1.6 | 0.00 | 0.00 | 0.00 | 43 | 1014.0 |
| 20260506141528 | 17 | 157 | 0.0 | 3.2 | 0.00 | 0.00 | 0.00 | 45 | 1014.0 |
| 20260506141027 | 16 | 151 | 0.0 | 3.2 | 0.00 | 0.00 | 0.00 | 45 | 1014.0 |